Hourly Data Report for August 12, 2006

TORONTO CITY
ONTARIO

43°40'00.000" N
79°24'00.000" W
112.50 m
6158355
71508
XTO

Download Data

Hourly Data (August 2006)
Hourly Data Report for August 12, 2006
TIME
LST
Temp Definition
°C
Dew Point Definition
°C
Rel Hum Definition
%
Precip. Amount Definition
mm

Wind Dir Definition
10's deg

Wind Spd Definition
km/h
Visibility Definition
km
Stn Press Definition
kPa
Hmdx Definition


Wind Chill Definition


Weather Definition


00:00 17.6 9.6 59   LegendMM LegendMM   100.53     LegendNANA
01:00 16.7 9.0 60   LegendMM LegendMM   100.52     LegendNANA
02:00 16.3 7.8 57   LegendMM LegendMM   100.51     LegendNANA
03:00 15.9 7.1 56   LegendMM LegendMM   100.55     LegendNANA
04:00 15.4 7.0 57   LegendMM LegendMM   100.55     LegendNANA
05:00 15.0 6.9 58   LegendMM LegendMM   100.61     LegendNANA
06:00 14.8 6.9 59   LegendMM LegendMM   100.69     LegendNANA
07:00 15.8 7.2 57   LegendMM LegendMM   100.71     LegendNANA
08:00 17.5 7.8 53   LegendMM LegendMM   100.74     LegendNANA
09:00 19.3 7.3 46   LegendMM LegendMM   100.74     LegendNANA
10:00 20.5 7.1 42   LegendMM LegendMM   100.70     LegendNANA
11:00 21.5 8.0 42   LegendMM LegendMM   100.65     LegendNANA
12:00 22.0 8.8 43   LegendMM LegendMM   100.61     LegendNANA
13:00 22.9 9.1 41   LegendMM LegendMM   100.60     LegendNANA
14:00 22.3 10.4 47   LegendMM LegendMM   100.58     LegendNANA
15:00 22.6 10.0 45   LegendMM LegendMM   100.55     LegendNANA
16:00 22.3 10.8 48   LegendMM LegendMM   100.53     LegendNANA
17:00 21.3 11.2 53   LegendMM LegendMM   100.48     LegendNANA
18:00 20.7 11.6 56   LegendMM LegendMM   100.43     LegendNANA
19:00 19.9 10.9 56   LegendMM LegendMM   100.44     LegendNANA
20:00 18.9 11.7 63   LegendMM LegendMM   100.49     LegendNANA
21:00 18.0 11.4 65   LegendMM LegendMM   100.52     LegendNANA
22:00 17.7 9.4 58   LegendMM LegendMM   100.50     LegendNANA
23:00 17.5 9.8 61   LegendMM LegendMM   100.50     LegendNANA

Notes on Data Quality.

Legend

  • E = Estimated
  • M = Missing
  • NA = Not Available*
  • [empty] = Indicates an unobserved value
Date modified: